Creek Data

    Home     View Charts     View Raw Data     Messages

ID Distance Battery Voltage Battery Current Internal Temp Internal Humidity External Temp Solar Input rssi snr Time Stamp Record
66264 15.2 3.91 0 68 49 64 5.1 -68 7 02/14/2026 01:30 PM 49072
66263 15.2 3.91 0 67 49 63 5.1 -68 8 02/14/2026 01:15 PM 49071
66262 15.2 3.91 0 67 49 63 5.1 -68 7 02/14/2026 01:00 PM 49070
66261 15.2 3.98 0 67 48 63 5.1 -68 7 02/14/2026 12:45 PM 49069
66260 15.2 4.11 0 68 47 63 5.1 -68 7 02/14/2026 12:30 PM 49068
66259 15.2 3.91 0 67 46 62 5.1 -68 8 02/14/2026 12:15 PM 49067
66258 15.2 3.91 0 66 46 62 5.1 -68 7 02/14/2026 12:00 PM 49066
66257 15.2 3.91 0 65 46 61 5.1 -68 8 02/14/2026 11:45 AM 49065
66256 15.2 3.91 0 64 46 60 5.1 -68 8 02/14/2026 11:30 AM 49064
66255 15.2 4.10 0 62 47 59 5.1 -68 7 02/14/2026 11:15 AM 49063
66254 15.2 3.97 0 61 47 58 5.1 -68 7 02/14/2026 11:00 AM 49062
66253 15.2 3.91 0 59 47 56 5.1 -68 7 02/14/2026 10:45 AM 49061
66252 15.2 3.91 0 58 47 55 5.1 -69 8 02/14/2026 10:30 AM 49060
66251 15.2 4.11 0 57 47 55 5.1 -68 7 02/14/2026 10:15 AM 49059
66250 15.2 3.91 0 58 46 55 5.1 -69 8 02/14/2026 10:00 AM 49058
66249 15.2 3.91 0 56 46 56 5.1 -69 8 02/14/2026 09:45 AM 49057
66248 15.2 3.91 0 54 46 54 5.1 -69 8 02/14/2026 09:30 AM 49056
66247 15.2 3.97 0 52 46 53 5.1 -69 8 02/14/2026 09:15 AM 49055
66246 15.2 3.90 0 50 46 51 5.1 -69 8 02/14/2026 09:00 AM 49054
66245 15.1 3.90 0 48 47 50 5.1 -69 8 02/14/2026 08:45 AM 49053
66244 15.1 3.90 0 46 47 47 5.1 -70 7 02/14/2026 08:30 AM 49052
66243 15.1 3.90 0 44 48 47 5.1 -70 8 02/14/2026 08:15 AM 49051
66242 15.1 3.90 0 41 49 42 5.1 -71 8 02/14/2026 08:00 AM 49050
66241 15.1 3.95 18 40 49 40 4.5 -70 8 02/14/2026 07:45 AM 49049
66240 15.1 3.87 -15 40 50 41 4.5 -70 8 02/14/2026 07:30 AM 49048